Fairfield, NJ

10:58 AM EST on February 24, 2017 (GMT -0500)
Essex County

Weather History for KCDW - June, 2013

Change the Weather History Date:

Thursday, June 6, 2013

  Actual Average Record
Temperature  
Mean Temperature 61 °F -  
Max Temperature 71 °F 76 °F 92 °F (1966)
Min Temperature 53 °F 53 °F 43 °F (1964)
Degree Days  
Heating Degree Days 4    
Growing Degree Days 11 (Base 50)    
Moisture  
Dew Point 55 °F    
Average Humidity 81    
Maximum Humidity 96    
Minimum Humidity 45    
Precipitation  
Precipitation 0.15 in - - ()
Sea Level Pressure  
Sea Level Pressure 30.12 in    
Wind  
Wind Speed 3 mph (SE)    
Max Wind Speed 15 mph    
Max Gust Speed 22 mph    
Visibility 9 miles    
Events Rain    
Averages and records for this station are not official NWS values.
T = Trace of Precipitation, MM = Missing Value Source: NWS Daily Summary

Daily Weather History Graph

Daily Weather History Graph

Search for Another Location

Airport or City:

Trip Planner

Search our weather history database for the weather conditions in past years. The results will help you decide how hot, cold, wet, or windy it might be!

Date:

Astronomy

Jun. 06, 2013 Rise Set
Actual Time 5:25 AM EDT 8:26 PM EDT
Civil Twilight 4:52 AM EDT 8:59 PM EDT
Nautical Twilight 4:10 AM EDT 9:41 PM EDT
Astronomical Twilight 3:21 AM EDT 10:30 PM EDT
Moon 4:06 AM EDT (6/6) 6:45 PM EDT (6/6)
Length of Visible Light 16h 06m
Length of Day
15h 00m
Waning Crescent, 4% of the Moon is Illuminated
Jun 6
Waning Crescent
Jun 8
New
Jun 16
First Quarter
Jun 23
Full
Jun 30
Last Quarter

Hourly Weather History & Observations

Time (EDT) Temp. Dew Point Humidity Pressure Visibility Wind Dir Wind Speed Gust Speed Precip Events Conditions
12:53 AM 55.0 °F 51.1 °F 86% 30.16 in 10.0 mi Calm Calm - N/A   Clear
1:53 AM 55.0 °F 51.1 °F 86% 30.16 in 10.0 mi Calm Calm - N/A   Clear
2:53 AM 54.0 °F 51.1 °F 90% 30.17 in 10.0 mi Calm Calm - N/A   Clear
3:53 AM 53.1 °F 52.0 °F 96% 30.17 in 10.0 mi Calm Calm - N/A   Clear
4:53 AM 53.1 °F 52.0 °F 96% 30.17 in 10.0 mi Calm Calm - N/A   Partly Cloudy
5:53 AM 53.1 °F 52.0 °F 96% 30.15 in 10.0 mi Calm Calm - N/A   Clear
6:51 AM 55.4 °F 53.6 °F 94% 30.14 in 10.0 mi Calm Calm - N/A   Mostly Cloudy
6:53 AM 55.0 °F 53.1 °F 93% 30.16 in 10.0 mi Calm Calm - N/A   Mostly Cloudy
7:09 AM 55.4 °F 53.6 °F 94% 30.15 in 9.0 mi Calm Calm - N/A   Overcast
7:53 AM 60.1 °F 55.9 °F 86% 30.16 in 7.0 mi Calm Calm - N/A   Mostly Cloudy
8:50 AM 62.6 °F 55.4 °F 77% 30.14 in 6.0 mi East 4.6 mph - N/A   Haze
8:53 AM 62.1 °F 55.9 °F 80% 30.15 in 7.0 mi ESE 4.6 mph - N/A   Mostly Cloudy
9:13 AM 64.4 °F 57.2 °F 77% 30.14 in 7.0 mi Calm Calm - N/A   Partly Cloudy
9:53 AM 66.9 °F 55.9 °F 68% 30.14 in 9.0 mi ESE 6.9 mph - N/A   Clear
10:53 AM 68.0 °F 53.1 °F 59% 30.13 in 10.0 mi SE 6.9 mph - N/A   Clear
11:53 AM 69.1 °F 50.0 °F 51% 30.12 in 10.0 mi South 11.5 mph 17.3 mph N/A   Clear
12:53 PM 69.1 °F 48.9 °F 49% 30.12 in 10.0 mi SSE 12.7 mph 21.9 mph N/A   Clear
1:53 PM 69.1 °F 46.9 °F 45% 30.12 in 10.0 mi SE 15.0 mph 20.7 mph N/A   Clear
2:53 PM 66.9 °F 52.0 °F 59% 30.10 in 10.0 mi SE 9.2 mph - N/A   Mostly Cloudy
3:53 PM 66.0 °F 55.0 °F 68% 30.09 in 10.0 mi SSE 11.5 mph 18.4 mph N/A   Mostly Cloudy
4:53 PM 64.9 °F 59.0 °F 81% 30.09 in 10.0 mi SSE 10.4 mph - 0.00 in Rain Light Rain
5:53 PM 63.0 °F 60.1 °F 90% 30.06 in 10.0 mi ESE 10.4 mph - 0.02 in Rain Light Rain
6:53 PM 63.0 °F 59.0 °F 87% 30.06 in 10.0 mi ESE 9.2 mph - 0.00 in Rain Light Rain
7:53 PM 63.0 °F 59.0 °F 87% 30.06 in 10.0 mi SE 8.1 mph - 0.01 in Rain Light Rain
8:53 PM 62.1 °F 59.0 °F 90% 30.06 in 10.0 mi Calm Calm - 0.01 in Rain Light Rain
9:53 PM 62.1 °F 60.1 °F 93% 30.06 in 9.0 mi Calm Calm - 0.02 in Rain Light Rain
10:53 PM 61.0 °F 59.0 °F 93% 30.05 in 8.0 mi ESE 5.8 mph - 0.04 in Rain Light Rain
11:02 PM 60.8 °F 59.0 °F 94% 30.03 in 7.0 mi Variable 5.8 mph - 0.01 in Rain Light Rain
11:53 PM 60.1 °F 57.9 °F 93% 30.04 in 8.0 mi Calm Calm - 0.05 in Rain Light Rain